Tracking 28779 objects as of 15-Apr-2024
HD Live streaming from Space Station
objects crossing your sky now

FENGYUN 1C DEB

Track FENGYUN 1C DEB now!
10-day predictions


NORAD ID: 30417
Int'l Code: 1999-025AEG
Perigee: 807.4 km
Apogee: 903.0 km
Inclination: 98.7 °
Period: 101.9 minutes
Semi major axis: 7226 km
RCS: 0.0259 m2 (small)
Launch date: May 10, 1999
Source: People's Republic of China (PRC)
Launch site: Taiyaun Space Center, China (TSC)

Note: This is SATELLITE DEBRIS
Your satellite tracking list
Your tracking list is empty




NASA's NSSDC Master Catalog

Two Line Element Set (TLE):
1 30417U 99025AEG 24105.95611056  .00000994  00000-0  54074-3 0  9990
2 30417  98.6624 107.5359 0066144  54.2046  12.7359 14.13317301888133
Source of the keplerian elements: AFSPC